Time,TemperatureF,DewpointF,PressureIn,WindDirection,WindDirectionDegrees,WindSpeedMPH,WindSpeedGustMPH,Humidity,HourlyPrecipIn,Conditions,Clouds,dailyrainin,SolarRadiationWatts/m^2,SoftwareType,DateUTC
2013-01-16 00:12:00,3.0,-1.0,-100.00,WSW,241,7.0,11.0,83,0.00,,,0.00,0.000000,,2013-01-16 07:12:00,
2013-01-16 00:22:00,3.0,-1.0,-100.00,WSW,241,7.0,11.0,83,0.00,,,0.00,0.000000,,2013-01-16 07:22:00,
2013-01-16 00:32:00,3.0,-1.0,-100.00,WSW,241,7.0,11.0,83,0.00,,,0.00,0.000000,,2013-01-16 07:32:00,
2013-01-16 00:42:00,3.0,-1.0,-100.00,WSW,241,7.0,11.0,83,0.00,,,0.00,0.000000,,2013-01-16 07:42:00,
2013-01-16 01:12:00,7.0,3.0,-100.00,SW,232,4.0,15.0,85,0.00,,,0.00,0.000000,,2013-01-16 08:12:00,
2013-01-16 01:22:00,7.0,3.0,-100.00,SW,232,4.0,15.0,85,0.00,,,0.00,0.000000,,2013-01-16 08:22:00,
2013-01-16 01:32:00,7.0,3.0,-100.00,SW,232,4.0,15.0,85,0.00,,,0.00,0.000000,,2013-01-16 08:32:00,
2013-01-16 01:42:00,7.0,3.0,-100.00,SW,232,4.0,15.0,85,0.00,,,0.00,0.000000,,2013-01-16 08:42:00,
2013-01-16 02:11:00,2.0,-1.0,-100.00,WSW,243,5.0,7.0,86,0.00,,,0.00,0.000000,,2013-01-16 09:11:00,
2013-01-16 02:22:00,2.0,-1.0,-100.00,WSW,243,5.0,7.0,86,0.00,,,0.00,0.000000,,2013-01-16 09:22:00,
2013-01-16 02:32:00,2.0,-1.0,-100.00,WSW,243,5.0,7.0,86,0.00,,,0.00,0.000000,,2013-01-16 09:32:00,
2013-01-16 02:42:00,2.0,-1.0,-100.00,WSW,243,5.0,7.0,86,0.00,,,0.00,0.000000,,2013-01-16 09:42:00,
2013-01-16 03:12:00,5.0,2.0,-100.00,SSW,213,4.0,10.0,88,0.00,,,0.00,0.000000,,2013-01-16 10:12:00,
2013-01-16 03:22:00,5.0,2.0,-100.00,SSW,213,4.0,10.0,88,0.00,,,0.00,0.000000,,2013-01-16 10:22:00,
2013-01-16 03:32:00,5.0,2.0,-100.00,SSW,213,4.0,10.0,88,0.00,,,0.00,0.000000,,2013-01-16 10:32:00,
2013-01-16 03:42:00,5.0,2.0,-100.00,SSW,213,4.0,10.0,88,0.00,,,0.00,0.000000,,2013-01-16 10:42:00,
2013-01-16 04:12:00,5.0,2.0,-100.00,SSW,200,1.0,5.0,87,0.00,,,0.00,0.000000,,2013-01-16 11:12:00,
2013-01-16 04:22:00,5.0,2.0,-100.00,SSW,200,1.0,5.0,87,0.00,,,0.00,0.000000,,2013-01-16 11:22:00,
2013-01-16 04:32:00,5.0,2.0,-100.00,SSW,200,1.0,5.0,87,0.00,,,0.00,0.000000,,2013-01-16 11:32:00,
2013-01-16 04:42:00,5.0,2.0,-100.00,SSW,200,1.0,5.0,87,0.00,,,0.00,0.000000,,2013-01-16 11:42:00,
2013-01-16 05:12:00,0.0,-3.0,-100.00,East,81,0.0,9.0,89,0.00,,,0.00,0.000000,,2013-01-16 12:12:00,
2013-01-16 05:22:00,0.0,-3.0,-100.00,East,81,0.0,9.0,89,0.00,,,0.00,0.000000,,2013-01-16 12:22:00,
2013-01-16 05:33:00,0.0,-3.0,-100.00,East,81,0.0,9.0,89,0.00,,,0.00,0.000000,,2013-01-16 12:33:00,
2013-01-16 05:42:00,0.0,-3.0,-100.00,East,81,0.0,9.0,89,0.00,,,0.00,0.000000,,2013-01-16 12:42:00,
2013-01-16 06:12:00,1.0,-1.0,-100.00,SSE,149,0.0,4.0,89,0.00,,,0.00,0.000000,,2013-01-16 13:12:00,
2013-01-16 06:22:00,1.0,-1.0,-100.00,SSE,149,0.0,4.0,89,0.00,,,0.00,0.000000,,2013-01-16 13:22:00,
2013-01-16 06:32:00,1.0,-1.0,-100.00,SSE,149,0.0,4.0,89,0.00,,,0.00,0.000000,,2013-01-16 13:32:00,
2013-01-16 06:42:00,1.0,-1.0,-100.00,SSE,149,0.0,4.0,89,0.00,,,0.00,0.000000,,2013-01-16 13:42:00,
2013-01-16 07:12:00,-1.0,-3.0,-100.00,SSW,206,6.0,9.0,91,0.00,,,0.00,0.000000,,2013-01-16 14:12:00,
2013-01-16 07:22:00,-1.0,-3.0,-100.00,SSW,206,6.0,9.0,91,0.00,,,0.00,0.000000,,2013-01-16 14:22:00,
2013-01-16 07:32:00,-1.0,-3.0,-100.00,SSW,206,6.0,9.0,91,0.00,,,0.00,0.000000,,2013-01-16 14:32:00,
2013-01-16 07:42:00,-1.0,-3.0,-100.00,SSW,206,6.0,9.0,91,0.00,,,0.00,0.000000,,2013-01-16 14:42:00,
2013-01-16 08:12:00,-1.0,-4.0,-100.00,NE,39,3.0,10.0,86,0.00,,,0.00,6.000000,,2013-01-16 15:12:00,
2013-01-16 08:22:00,-1.0,-4.0,-100.00,NE,39,3.0,10.0,86,0.00,,,0.00,6.000000,,2013-01-16 15:22:00,
2013-01-16 08:32:00,-1.0,-4.0,-100.00,NE,39,3.0,10.0,86,0.00,,,0.00,6.000000,,2013-01-16 15:32:00,
2013-01-16 08:42:00,-1.0,-4.0,-100.00,NE,39,3.0,10.0,86,0.00,,,0.00,6.000000,,2013-01-16 15:42:00,
2013-01-16 09:12:00,7.0,1.0,-100.00,ENE,59,2.0,6.0,77,-99.99,,,0.00,176.000000,,2013-01-16 16:12:00,
2013-01-16 09:22:00,7.0,1.0,-100.00,ENE,59,2.0,6.0,77,-99.99,,,0.00,176.000000,,2013-01-16 16:22:00,
2013-01-16 09:32:00,7.0,1.0,-100.00,ENE,59,2.0,6.0,77,-99.99,,,0.00,176.000000,,2013-01-16 16:32:00,
2013-01-16 09:42:00,7.0,1.0,-100.00,ENE,59,2.0,6.0,77,-99.99,,,0.00,176.000000,,2013-01-16 16:42:00,
2013-01-16 10:12:00,9.0,1.0,-100.00,NE,47,6.0,9.0,70,-99.99,,,0.00,381.000000,,2013-01-16 17:12:00,
2013-01-16 10:22:00,9.0,1.0,-100.00,NE,47,6.0,9.0,70,-99.99,,,0.00,381.000000,,2013-01-16 17:22:00,
2013-01-16 10:33:00,9.0,1.0,-100.00,NE,47,6.0,9.0,70,-99.99,,,0.00,381.000000,,2013-01-16 17:33:00,
2013-01-16 10:43:00,9.0,1.0,-100.00,NE,47,6.0,9.0,70,-99.99,,,0.00,381.000000,,2013-01-16 17:43:00,
2013-01-16 11:12:00,15.0,3.0,-100.00,NE,41,1.0,8.0,58,-99.99,,,0.00,539.000000,,2013-01-16 18:12:00,
2013-01-16 11:22:00,15.0,3.0,-100.00,NE,41,1.0,8.0,58,-99.99,,,0.00,539.000000,,2013-01-16 18:22:00,
2013-01-16 11:33:00,15.0,3.0,-100.00,NE,41,1.0,8.0,58,-99.99,,,0.00,539.000000,,2013-01-16 18:33:00,
2013-01-16 11:42:00,15.0,3.0,-100.00,NE,41,1.0,8.0,58,-99.99,,,0.00,539.000000,,2013-01-16 18:42:00,
2013-01-16 12:12:00,18.0,2.0,-100.00,NE,39,2.0,5.0,49,0.00,,,0.00,639.000000,,2013-01-16 19:12:00,
2013-01-16 12:23:00,18.0,2.0,-100.00,NE,39,2.0,5.0,49,0.00,,,0.00,639.000000,,2013-01-16 19:23:00,
2013-01-16 12:42:00,18.0,2.0,-100.00,NE,39,2.0,5.0,49,0.00,,,0.00,639.000000,,2013-01-16 19:42:00,
2013-01-16 13:12:00,24.0,6.0,-100.00,SSE,164,0.0,5.0,46,-99.99,,,0.00,694.000000,,2013-01-16 20:12:00,
2013-01-16 13:23:00,24.0,6.0,-100.00,SSE,164,0.0,5.0,46,-99.99,,,0.00,694.000000,,2013-01-16 20:23:00,
2013-01-16 13:33:00,24.0,6.0,-100.00,SSE,164,0.0,5.0,46,-99.99,,,0.00,694.000000,,2013-01-16 20:33:00,
2013-01-16 13:42:00,24.0,6.0,-100.00,SSE,164,0.0,5.0,46,-99.99,,,0.00,694.000000,,2013-01-16 20:42:00,
2013-01-16 14:12:00,20.0,4.0,-100.00,NE,46,3.0,6.0,50,0.00,,,0.00,664.000000,,2013-01-16 21:12:00,
2013-01-16 14:22:00,20.0,4.0,-100.00,NE,46,3.0,6.0,50,0.00,,,0.00,664.000000,,2013-01-16 21:22:00,
2013-01-16 14:33:00,20.0,4.0,-100.00,NE,46,3.0,6.0,50,0.00,,,0.00,664.000000,,2013-01-16 21:33:00,
2013-01-16 14:42:00,20.0,4.0,-100.00,NE,46,3.0,6.0,50,0.00,,,0.00,664.000000,,2013-01-16 21:42:00,
2013-01-16 15:12:00,20.0,8.0,-100.00,SW,232,6.0,8.0,60,0.00,,,0.00,558.000000,,2013-01-16 22:12:00,
2013-01-16 15:22:00,20.0,8.0,-100.00,SW,232,6.0,8.0,60,0.00,,,0.00,558.000000,,2013-01-16 22:22:00,
2013-01-16 15:33:00,20.0,8.0,-100.00,SW,232,6.0,8.0,60,0.00,,,0.00,558.000000,,2013-01-16 22:33:00,
2013-01-16 15:42:00,20.0,8.0,-100.00,SW,232,6.0,8.0,60,0.00,,,0.00,558.000000,,2013-01-16 22:42:00,
2013-01-16 16:12:00,26.0,10.0,-100.00,SW,232,2.0,8.0,50,0.00,,,0.00,392.000000,,2013-01-16 23:12:00,
2013-01-16 16:22:00,26.0,10.0,-100.00,SW,232,2.0,8.0,50,0.00,,,0.00,392.000000,,2013-01-16 23:22:00,
2013-01-16 16:32:00,26.0,10.0,-100.00,SW,232,2.0,8.0,50,0.00,,,0.00,392.000000,,2013-01-16 23:32:00,
2013-01-16 16:42:00,26.0,10.0,-100.00,SW,232,2.0,8.0,50,0.00,,,0.00,392.000000,,2013-01-16 23:42:00,
2013-01-16 17:12:00,22.0,11.0,-100.00,SW,234,6.0,10.0,63,0.00,,,0.00,184.000000,,2013-01-17 00:12:00,
2013-01-16 17:22:00,22.0,11.0,-100.00,SW,234,6.0,10.0,63,0.00,,,0.00,184.000000,,2013-01-17 00:22:00,
2013-01-16 17:32:00,22.0,11.0,-100.00,SW,234,6.0,10.0,63,0.00,,,0.00,184.000000,,2013-01-17 00:32:00,
2013-01-16 17:42:00,22.0,11.0,-100.00,SW,234,6.0,10.0,63,0.00,,,0.00,184.000000,,2013-01-17 00:42:00,
2013-01-16 18:12:00,20.0,11.0,-100.00,SW,231,6.0,12.0,68,0.00,,,0.00,13.000000,,2013-01-17 01:12:00,
2013-01-16 18:22:00,20.0,11.0,-100.00,SW,231,6.0,12.0,68,0.00,,,0.00,13.000000,,2013-01-17 01:22:00,
2013-01-16 18:32:00,20.0,11.0,-100.00,SW,231,6.0,12.0,68,0.00,,,0.00,13.000000,,2013-01-17 01:32:00,
2013-01-16 18:42:00,20.0,11.0,-100.00,SW,231,6.0,12.0,68,0.00,,,0.00,13.000000,,2013-01-17 01:42:00,
2013-01-16 19:12:00,19.0,11.0,-100.00,WSW,240,0.0,8.0,71,0.00,,,0.00,0.000000,,2013-01-17 02:12:00,
2013-01-16 19:22:00,19.0,11.0,-100.00,WSW,240,0.0,8.0,71,0.00,,,0.00,0.000000,,2013-01-17 02:22:00,
2013-01-16 19:32:00,19.0,11.0,-100.00,WSW,240,0.0,8.0,71,0.00,,,0.00,0.000000,,2013-01-17 02:32:00,
2013-01-16 19:42:00,19.0,11.0,-100.00,WSW,240,0.0,8.0,71,0.00,,,0.00,0.000000,,2013-01-17 02:42:00,
2013-01-16 20:12:00,16.0,10.0,-100.00,NE,51,0.0,4.0,78,0.00,,,0.00,0.000000,,2013-01-17 03:12:00,
2013-01-16 20:22:00,16.0,10.0,-100.00,NE,51,0.0,4.0,78,0.00,,,0.00,0.000000,,2013-01-17 03:22:00,
2013-01-16 20:32:00,16.0,10.0,-100.00,NE,51,0.0,4.0,78,0.00,,,0.00,0.000000,,2013-01-17 03:32:00,
2013-01-16 20:42:00,16.0,10.0,-100.00,NE,51,0.0,4.0,78,0.00,,,0.00,0.000000,,2013-01-17 03:42:00,
2013-01-16 21:12:00,15.0,9.0,-100.00,SW,229,1.0,5.0,76,0.00,,,0.00,0.000000,,2013-01-17 04:12:00,
2013-01-16 21:22:00,15.0,9.0,-100.00,SW,229,1.0,5.0,76,0.00,,,0.00,0.000000,,2013-01-17 04:22:00,
2013-01-16 21:32:00,15.0,9.0,-100.00,SW,229,1.0,5.0,76,0.00,,,0.00,0.000000,,2013-01-17 04:32:00,
2013-01-16 21:42:00,15.0,9.0,-100.00,SW,229,1.0,5.0,76,0.00,,,0.00,0.000000,,2013-01-17 04:42:00,
2013-01-16 22:12:00,13.0,8.0,-100.00,WSW,244,0.0,2.0,79,0.00,,,0.00,0.000000,,2013-01-17 05:12:00,
2013-01-16 22:22:00,13.0,8.0,-100.00,WSW,244,0.0,2.0,79,0.00,,,0.00,0.000000,,2013-01-17 05:22:00,
2013-01-16 22:32:00,13.0,8.0,-100.00,WSW,244,0.0,2.0,79,0.00,,,0.00,0.000000,,2013-01-17 05:32:00,
2013-01-16 22:42:00,13.0,8.0,-100.00,WSW,244,0.0,2.0,79,0.00,,,0.00,0.000000,,2013-01-17 05:42:00,
2013-01-16 23:12:00,11.0,8.0,-100.00,NE,36,0.0,3.0,86,0.00,,,0.00,0.000000,,2013-01-17 06:12:00,
2013-01-16 23:22:00,11.0,8.0,-100.00,NE,36,0.0,3.0,86,0.00,,,0.00,0.000000,,2013-01-17 06:22:00,
2013-01-16 23:32:00,11.0,8.0,-100.00,NE,36,0.0,3.0,86,0.00,,,0.00,0.000000,,2013-01-17 06:32:00,
2013-01-16 23:42:00,11.0,8.0,-100.00,NE,36,0.0,3.0,86,0.00,,,0.00,0.000000,,2013-01-17 06:42:00,